Location: Zagreb
(45.8000°N, 16.0000°E)
Time: 13:42:41
(UTC+02:00)

Transit 2A Rocket - Pass Details

Date: 14 August 2022
Orbit: 593 x 907 km, 66.7° (Epoch: 25 September)

Event Time Altitude Azimuth Distance (km) Brightness Sun altitude
Rises 04:39:11 0° 314° (NW) 2,875 7.9 -12.3°
Reaches altitude 10° 04:41:46 10° 299° (WNW) 1,996 6.9 -11.9°
Maximum altitude 04:45:13 22° 249° (WSW) 1,407 5.8 -11.4°
Drops below altitude 10° 04:48:49 10° 199° (SSW) 2,099 6.8 -10.9°
Sets 04:51:38 0° 184° (S) 3,067 7.8 -10.5°
